Tracking 22287 objects as of 27-Jan-2021
HD Live streaming from Space Station
objects crossing your sky now

STARLINK-1483

Track STARLINK-1483 now!
10-day predictions
STARLINK-1483 is classified as:


NORAD ID: 45743
Int'l Code: 2020-038P
Perigee: 552.6 km
Apogee: 555.6 km
Inclination: 53.0 °
Period: 95.6 minutes
Semi major axis: 6925 km
RCS: Unknown
Launch date: June 13, 2020
Source: United States (US)
Launch site: AIR FORCE EASTERN TEST RANGE (AFETR)
aabbcc
Your satellite tracking list
Your tracking list is empty




NASA's NSSDC Master Catalog

Two Line Element Set (TLE):
1 45743U 20038P   21027.58776068 -.00020083  00000-0 -13299-2 0  9996
2 45743  53.0275 338.3324 0002199  44.0205 316.0958 15.06486956 34772
Source of the keplerian elements: AFSPC